Regional Weather Roundup
Issued by NWS

Home | Current Version | Previous Version | Graphics & Text | Print | Product List | Glossary On
Versions: 1 2 3 4 5 6 7 8 9 10 11 12 13 14 15 16 17 18 19 20 21 22 23 24 25 26 27 28 29 30 31 32 33 34 35 36 37 38 39 40 41 42 43 44 45 46 47 48 49 50
000
ASUS45 KBOU 280410
RWRCO

WEATHER ROUNDUP FOR COLORADO
NATIONAL WEATHER SERVICE DENVER/BOULDER CO
1000 PM MDT MON JUL 27 2015

NOTE: "FAIR" INDICATES FEW OR NO CLOUDS BELOW 12000 FEET WITH NO
SIGNIFICANT WEATHER AND/OR OBSTRUCTIONS TO VISIBILITY.

COZ001>005-013-030-031-280500-
...NORTHWEST COLORADO...

CITY           SKY/WX    TMP DP  RH WIND       PRES   REMARKS
CRAIG          CLEAR     67  34  29 NW12G20   30.14R
HAYDEN         CLEAR     66  34  30 NW15G21   30.12R
MEEKER         CLEAR     69  36  29 NE13      30.12R
MOUNT WERNER   NOT AVBL
STEAMBOAT SPGS CLEAR     65  37  35 NW12      30.10R
WALDEN         CLEAR     55  30  38 N10       30.19R
$$

COZ006>008-011-280500-
...WEST CENTRAL VALLEYS...

CITY           SKY/WX    TMP DP  RH WIND       PRES   REMARKS
GRAND JUNCTION CLEAR     71  28  20 NE6       29.93R
MONTROSE       CLEAR     72  32  23 S9        30.07R
EAGLE          CLEAR     72  34  25 SW7       30.11R
RIFLE          CLEAR     72  29  20 N8        30.02R
DELTA          CLEAR     81  22  11 SE5       30.00R
NUCLA          CLEAR     75  21  13 SW6       30.11R
$$

COZ017>023-064>068-280500-
...SOUTHWEST COLORADO...

CITY           SKY/WX    TMP DP  RH WIND       PRES   REMARKS
DURANGO        CLEAR     71  30  21 CALM      30.15R
CORTEZ         CLEAR     64  39  39 NE9       30.08R
PAGOSA SPRINGS CLEAR     61  38  43 CALM      30.24R
TELLURIDE      CLEAR     62  29  28 CALM      30.38R
WOLF CREEK PAS NOT AVBL
$$

COZ009-010-012-014-032>034-037-058>063-280500-
...CENTRAL COLORADO...

CITY           SKY/WX    TMP DP  RH WIND       PRES   REMARKS
ASPEN          CLEAR     62  37  39 S8        30.20R
BUENA VISTA    CLEAR     71  26  18 NW9G18    30.21R
COPPER MTN     CLEAR     55  21  26 SW9G24    30.54R
BERTHOUD PASS  FAIR      46  36  66 W30G37    30.54S
COTTONWOOD PAS CLEAR     64  19  17 W7        30.37R
GUNNISON       CLEAR     64  30  27 NW7       30.24R
KREMMLING      CLEAR     63  30  29 CALM      30.15R
LEADVILLE      CLEAR     54  28  36 NE5       30.36R
MONARCH PASS   CLEAR     52  30  43 W35G40    30.63R
SALIDA         CLEAR     70  34  26 W13       30.25R
SUNLIGHT       CLEAR     54  27  35 CALM      30.46R
WILKERSON PASS CLEAR     55  27  33 SW12G23   30.48R
$$

COZ069>075-280500-
...SAN LUIS VALLEY/SANGRE DE CRISTO MOUNTAINS...

CITY           SKY/WX    TMP DP  RH WIND       PRES   REMARKS
ALAMOSA        CLEAR     59  41  51 S5        30.20R
LA VETA PASS   PTCLDY    59  36  41 MISG      30.40R
SAGUACHE       PTCLDY    59  45  58 N9        30.24R
$$

COZ035-036-038>040-280500-
...NORTHERN COLORADO FRONT RANGE...

CITY           SKY/WX    TMP DP  RH WIND       PRES   REMARKS
DENVER INTL AP PTCLDY    81  36  19 W7        29.91R
DMNS CITY PARK   N/A     81  35  19 W3G9      29.91R
AURORA         PTCLDY    75  50  41 SW7       29.95R
FRONT RANGE AP NOT AVBL
ERIE MUNI ARPT CLEAR     85  26  12 W15G30    29.89R
BOULDER MUN AP CLEAR     81  36  19 SW6       29.91R
CENTENNIAL     PTCLDY    78  43  28 W3        29.96R
BROOMFIELD     PTCLDY    82  34  17 W23G31    29.93R
FORT COLLINS   CLEAR     84  37  18 W10G18    29.87R
LONGMONT       CLEAR     75  40  28 SW6       29.90R
$$

COZ041-046-047-076>085-087-088-280500-
...PIKES PEAK/PALMER DIVIDE AND SOUTHERN FOOTHILLS...

CITY           SKY/WX    TMP DP  RH WIND       PRES   REMARKS
COLO. SPRINGS  PTCLDY    78  46  32 SW7       30.02R
A. F. ACADEMY  CLEAR     72  44  36 VRB3      30.04R
ELLICOTT       CLEAR    N/A N/A N/A SW9G45    30.01R
FALCON         CLEAR     66  51  57 W6        30.09R
FORT CARSON    PTCLDY    78  46  32 W10       29.98R
LIMON          CLEAR     73  52  47 SW7       29.92R
MONUMENT HILL  CLEAR     63  46  55 SW6       30.08R
TRINIDAD       PTCLDY    75  46  35 SW9       30.02R
$$

COZ042>045-048>051-090-091-280500-
...NORTHEAST COLORADO...

CITY           SKY/WX    TMP DP  RH WIND       PRES   REMARKS
GREELEY ARPT   CLEAR     72  48  43 N6        29.86R
AKRON            N/A    N/A N/A N/A MISG      29.83R
BURLINGTON     PTCLDY    75  59  57 S13       29.84R
WRAY           CLEAR     80  66  62 S10       29.76S
STERLING       NOT AVBL
HOLYOKE        CLEAR     79  68  69 SE14      29.76S
FORT MORGAN    MOCLDY    74  53  47 W8        29.82R
$$

COZ086-089-092>099-280500-
...SOUTHEAST COLORADO...

CITY           SKY/WX    TMP DP  RH WIND       PRES   REMARKS
PUEBLO         CLEAR     80  51  36 NW6       29.88R
LA JUNTA       PTCLDY    82  55  39 S7        29.85R
LAMAR          PTCLDY    84  62  47 S16       29.81R
SPRINGFIELD      N/A     79  62  56 S18       29.93R
$$


USA.gov is the U.S. government's official web portal to all federal, state and local government web resources and services.